Zurück zum Katalog

STARLINK-6044

AktivKommunikationVLEO
NORAD 56479·PAYLOAD·🇺🇸 United States

Gestartet May 10, 2023 von Vandenberg Space Force Base

Loading…

Nächste Überflüge (nächste 24 Stunden)

TLE

AktuellSource: CelesTrak SupGP

Epoche: Sep 14, 2026, 22:19 UTC

1 56479C 23064AH  26257.93034722  .00423850  00000+0  33388-1 0  2572
2 56479  70.0003   7.1475 0003110 274.3095 309.0386 15.00497041    13

Verfolge STARLINK-6044 in Echtzeit mit AllMySat

Download on the App Store